Regional Weather Roundup
Issued by NWS

Home | Current Version | Previous Version | Graphics & Text | Print | Product List | Glossary On
Versions: 1 2 3 4 5 6 7 8 9 10 11 12 13 14 15 16 17 18 19 20 21 22 23 24 25 26 27 28 29 30 31 32 33 34 35 36 37 38 39 40 41 42 43 44 45 46 47 48 49 50
000
ASUS43 KDMX 292001
RWRIA

WEATHER ROUNDUP FOR IOWA
NATIONAL WEATHER SERVICE DES MOINES IA
300 PM CDT MON MAY 29 2017

NOTE: "FAIR" INDICATES FEW OR NO CLOUDS BELOW 12,000 FEET WITH NO
SIGNIFICANT WEATHER AND/OR OBSTRUCTIONS TO VISIBILITY.

* - THESE STATIONS ARE NOT NWS STATIONS...THUS NOT UNDER NWS
QUALITY CONTROL.  THEY ALSO DO NOT REPORT WEATHER SUCH
AS PRECIPITATION OR FOG.

IAZ001>003-012>014-020>022-031>034-043>046-292100-
   NORTHWEST IOWA

CITY           SKY/WX    TMP DP  RH WIND       PRES   REMARKS
CARROLL *      MOSUNNY   73  43  33 NW21G32   29.96F
CHEROKEE *     PTSUNNY   65  43  43 NW18G26   29.97S
DENISON *      PTSUNNY   70  41  35 W18G24    30.00S
LE MARS *      MOSUNNY   68  43  40 W21G28    30.00S
ORANGE CITY *  MOSUNNY   66  46  48 NW20G32   29.98S
SHELDON *      MOSUNNY   68  41  37 NW24G31   29.95S
SIOUX CITY     PTSUNNY   69  46  43 NW22G33   29.98S
SPENCER        PTSUNNY   67  44  43 NW20G30   29.95S
STORM LAKE *   MOSUNNY   68  41  37 NW24G31   29.97S
$$

IAZ055>058-069>071-079>083-090>094-292100-
   SOUTHWEST IOWA

CITY           SKY/WX    TMP DP  RH WIND       PRES   REMARKS
ATLANTIC *     MOSUNNY   72  39  30 NW20G29   29.98S
AUDUBON *      MOSUNNY   72  39  30 NW13G21   29.99F
CLARINDA *     MOSUNNY   77  39  25 NW20G31   30.01S
COUNCIL BLFS * SUNNY     72  37  28 W22G33    30.00F
CRESTON *      SUNNY     73  37  27 W24G35    29.99S
HARLAN  *      MOSUNNY   73  37  27 NW24G33   30.02S
LAMONI         SUNNY     76  39  26 W24G31    29.97S
RED OAK *      MOSUNNY   75  37  25 NW23      29.99S
SHENANDOAH *   MOSUNNY   75  39  27 NW16G25   30.00S
$$

IAZ047>049-059>061-072>074-084-292100-
   CENTRAL IOWA

CITY           SKY/WX    TMP DP  RH WIND       PRES   REMARKS
AMES           PTSUNNY   72  44  36 NW18G25   29.92F
ANKENY *       MOSUNNY   73  41  31 W17G29    29.94S
BOONE *        PTSUNNY   70  43  37 NW18G30   29.92F
CHARITON *     MOSUNNY   75  43  31 NW16G33   29.94F
DES MOINES     MOSUNNY   76  40  27 W25G35    29.93F
GRINNELL*      PTSUNNY   73  41  32 W17G26    29.93F
KNOXVILLE *    MOSUNNY   73  37  27 W26G35    29.92S
MARSHALLTOWN   PTSUNNY   72  45  37 NW21G28   29.90F
NEWTON *       SUNNY     73  41  31 W18G28    29.92S
PELLA *        SUNNY     75  39  27 W22G30    29.94S
PERRY *        PTSUNNY   73  35  25 W23G33    29.96S
$$

IAZ004>006-015-016-023>025-035-036-292100-
   NORTH CENTRAL IOWA

CITY           SKY/WX    TMP DP  RH WIND       PRES   REMARKS
ALGONA *       CLOUDY    66  43  42 NW17G28   29.94R
CLARION *      PTSUNNY   70  41  35 W25G36    29.92S
ESTHERVILLE    CLOUDY    65  46  50 W21G28    29.93S
FORT DODGE *   CLOUDY    70  45  40 NW14G23   29.95S
MASON CITY     PTSUNNY   65  45  48 NW22      29.91S
FOREST CITY *  CLOUDY    66  36  32 NW17G23   29.91S
WEBSTER CITY * MOSUNNY   72  41  33 W28G44    29.90F
IOWA FALLS *   PTSUNNY   71  40  33 W24G33    29.91F
$$

IAZ007>011-017>019-026>030-037>042-050>054-066-292100-
   NORTHEAST IOWA

CITY           SKY/WX    TMP DP  RH WIND       PRES   REMARKS
CEDAR RAPIDS   MOSUNNY   72  47  40 W17G31    29.88F
CHARLES CITY * PTSUNNY   68  41  37 W20G25    29.88S
CLINTON *      PTSUNNY   73  45  36 W24G33    29.87S
DECORAH *      MOSUNNY   66  45  45 W10G26    29.84F
DUBUQUE        PTSUNNY   69  45  41 W20G29    29.87F
MONTICELLO *   MOSUNNY   72  45  37 W24G32    29.86F
OELWEIN *      PTSUNNY   68  43  40 W21       29.88S
WATERLOO       PTSUNNY   68  43  40 NW14      29.87F
$$

IAZ064-065-067-068-078-292100-
   EAST CENTRAL IOWA

CITY           SKY/WX    TMP DP  RH WIND       PRES   REMARKS
DAVENPORT      MOSUNNY   75  42  30 W25G32    29.88F
IOWA CITY      PTSUNNY   75  45  34 W20G30    29.90F
MT. PLEASANT * MOSUNNY   77  38  24 W18       29.91F
MUSCATINE *    MOSUNNY   77  43  29 W18G30    29.90S
QUAD CITIES    MOSUNNY   74  44  34 W16       29.88F
$$

IAZ062-063-075>077-085>089-095>099-292100-
   SOUTHEAST IOWA

CITY           SKY/WX    TMP DP  RH WIND       PRES   REMARKS
BURLINGTON     SUNNY     77  42  28 W15G29    29.90F
FAIRFIELD *    MOSUNNY   75  39  27 W22       29.91F
FORT MADISON * SUNNY     79  43  27 W21       29.92S
KEOKUK *       SUNNY     77  43  29 NW12G22   29.91F
OSKALOOSA *      N/A     76  39  26 NW23G35   29.92F
OTTUMWA        PTSUNNY   73  43  33 W16G26    29.92F
WASHINGTON *   MOSUNNY   75  43  31 W16G31    29.92S
$$

ABBREVIATIONS USED IN REMARKS
   TC - TEMPERATURES IN CELSIUS
  WCI - WIND CHILL INDEX
   HX - HEAT INDEX
  VSB - VISIBILITY
$$




USA.gov is the U.S. government's official web portal to all federal, state and local government web resources and services.